Location: LDNL
(36.4545°S, 141.6685°E)
Time: 04:16:36
(UTC+11:00)

A-11 Canister half - Pass Details

Date: 19 August 2022
Orbit: 1524 x 1684 km, 47.3° (Epoch: 05 October)

Event Time Altitude Azimuth Distance (km) Brightness Sun altitude
Rises 20:52:27 0° 240° (WSW) 4,694 12.5 -34.6°
Reaches altitude 10° 20:55:34 10° 236° (SW) 3,710 11.7 -35.2°
Enters shadow 21:04:15 62° 172° (S) 1,713 9.1 -36.9°
Maximum altitude 21:04:50 63° 155° (SSE) 1,702 - -37.0°
Drops below altitude 10° 21:14:14 10° 75° (ENE) 3,761 - -38.9°
Sets 21:17:24 0° 71° (ENE) 4,762 - -39.5°
